Location: Croydon
(51.3762°N, 0.0982°W)
Time: 14:39:47
(UTC+00:00)

KKS-1 - Pass Details

Date: 20 October 2019
Orbit: 636 x 651 km, 98.3° (Epoch: 17 November)

Event Time Altitude Azimuth Distance (km) Brightness Sun altitude
Rises 06:47:59 0° 146° (SE) 2,958 ? -7.6°
Reaches altitude 10° 06:50:15 10° 140° (SE) 2,051 ? -7.2°
Maximum altitude 06:54:31 46° 68° (ENE) 881 ? -6.6°
Drops below altitude 10° 06:58:48 10° 356° (N) 2,058 ? -5.9°
Sets 07:01:04 0° 350° (N) 2,970 ? -5.6°
